This is the latest recevied weather packets stored in our database for station/object K1WJY. If no packets are shown the sender has not sent any weather packets the latest 10 day(s).
| Time | Temp. | Humidity | Pressure | Rain* | Wind** | Luminosity | Snow |
|---|---|---|---|---|---|---|---|
| 1787654551 | 17.22° C | 99% | 1015.6 hPa | 0 mm | - | 21 W/m² | - |
| 1787654252 | 17.22° C | 99% | 1015.4 hPa | 0 mm | - | 15 W/m² | - |
| 1787653946 | 17.22° C | 99% | 1015.5 hPa | 0 mm | - | 15 W/m² | - |
| 1787653641 | 17.22° C | 99% | 1015.6 hPa | 0 mm | - | 16 W/m² | - |
| 1787653337 | 17.22° C | 99% | 1015.4 hPa | 0 mm | - | 11 W/m² | - |
| 1787653033 | 17.22° C | 99% | 1015.4 hPa | 0 mm | - | 9 W/m² | - |
| 1787652728 | 17.22° C | 99% | 1015.8 hPa | 0 mm | - | 6 W/m² | - |
| 1787652422 | 17.22° C | 99% | 1015.5 hPa | 0 mm | - | 2 W/m² | - |
| 1787652117 | 17.22° C | 99% | 1015.5 hPa | 0 mm | - | 2 W/m² | - |
| 1787651816 | 17.22° C | 99% | 1015.6 hPa | 0 mm | - | 1 W/m² | - |
| 1787651511 | 17.22° C | 99% | 1015.3 hPa | 0 mm | - | 0 W/m² | - |
| 1787651210 | 17.22° C | 99% | 1015.5 hPa | 0 mm | - | 0 W/m² | - |
| 1787650907 | 17.22° C | 99% | 1015.3 hPa | 0 mm | - | 0 W/m² | - |
| 1787650603 | 17.22° C | 99% | 1015.3 hPa | 0 mm | - | 0 W/m² | - |
| 1787650298 | 17.22° C | 99% | 1015.3 hPa | 0 mm | - | 0 W/m² | - |
| 1787649993 | 17.22° C | 99% | 1015.2 hPa | 0 mm | - | 0 W/m² | - |
| 1787649688 | 17.22° C | 99% | 1015.4 hPa | 0 mm | - | 0 W/m² | - |
| 1787649383 | 17.22° C | 99% | 1015.3 hPa | 0 mm | - | 0 W/m² | - |
| 1787649078 | 17.22° C | 99% | 1015.2 hPa | 0 mm | - | 0 W/m² | - |
| 1787648767 | 17.78° C | 99% | 1015.2 hPa | 0 mm | - | 0 W/m² | - |
| 1787648465 | 17.78° C | 99% | 1015.1 hPa | 0 mm | - | 0 W/m² | - |
| 1787648164 | 17.78° C | 99% | 1015 hPa | 0 mm | - | 0 W/m² | - |
| 1787647860 | 17.78° C | 99% | 1014.9 hPa | 0 mm | - | 0 W/m² | - |
| 1787647556 | 17.78° C | 99% | 1015.1 hPa | 0 mm | - | 0 W/m² | - |
| 1787647254 | 17.78° C | 99% | 1015 hPa | 0 mm | - | 0 W/m² | - |
* Rain latest hour (hover to see other rain measurements)
** Current wind speed in m/s (hover to see current wind gust speed)